Regional Weather Roundup
Issued by NWS Charleston, WV

Home | Current Version | Previous Version | Graphics & Text | Print | Product List | Glossary On
Versions: 1 2 3 4 5 6 7 8 9 10 11 12 13 14 15 16 17 18 19 20 21 22 23 24 25 26 27 28
000
ASUS41 KRLX 262210
RWRRLX
West Virginia Regional Weather Roundup
National Weather Service Charleston WV
600 PM EDT WED APR 26 2017

Note: "fair" indicates few or no clouds below 12,000 feet with no
significant weather and/or obstructions to visibility.

WVZ003-262300-
Northern Panhandle of West Virginia

CITY           SKY/WX    TMP DP  RH WIND       PRES   REMARKS
WHEELING       SUNNY     78  54  43 S6        29.68F
$$

WVZ009-262300-
Northwest West Virginia

CITY           SKY/WX    TMP DP  RH WIND       PRES   REMARKS
PARKERSBURG    SUNNY     83  53  35 SE8       29.69F
$$

WVZ006-262300-
Western West Virginia

CITY           SKY/WX    TMP DP  RH WIND       PRES   REMARKS
HUNTINGTON     SUNNY     83  52  34 S10G16    29.66F
$$

WVZ015-262300-
West Central West Virginia

CITY           SKY/WX    TMP DP  RH WIND       PRES   REMARKS
CHARLESTON     SUNNY     84  51  31 SE7       29.68S
$$

WVZ022-031-262300-
North Central West Virginia

CITY           SKY/WX    TMP DP  RH WIND       PRES   REMARKS
CLARKSBURG     SUNNY     79  56  45 SW7       29.71S
MORGANTOWN     SUNNY     79  54  41 SW5       29.72S
$$

WVZ025-035-042-045-262300-
Southern West Virginia

CITY           SKY/WX    TMP DP  RH WIND       PRES   REMARKS
BECKLEY        SUNNY     79  44  28 S6        29.78S
LOGAN          NOT AVBL
BLUEFIELD      SUNNY     77  49  37 SE8       29.81S
LEWISBURG      SUNNY     77  54  44 S6        29.79S
$$

WVZ047-262300-
Northern Mountains of West Virginia

CITY           SKY/WX    TMP DP  RH WIND       PRES   REMARKS
ELKINS         SUNNY     79  51  37 CALM      29.75S
$$

WVZ052-262300-
Eastern Panhandle of West Virginia

CITY           SKY/WX    TMP DP  RH WIND       PRES   REMARKS
MARTINSBURG    SUNNY     72  57  59 CALM      29.75R
PETERSBURG     SUNNY     81  60  49 E7        29.72R
$$




USA.gov is the U.S. government's official web portal to all federal, state and local government web resources and services.